Location: Benay
(49.7607°N, 3.3051°E)
Time: 08:57:03
(UTC+00:00)

Daily predictions for brighter satellites

Satellite Brightness Start Highest point End
(mag) Time Altitude Azimuth Time Altitude Azimuth Time Altitude Azimuth
ATLAS CENTAUR R/B 2.1 17:14:16 10° SW 17:18:55 60° NW 17:23:23 10° NE
NOAA 6 4.0 17:15:23 10° SSE 17:20:30 71° ENE 17:25:40 10° N
Cosmos 468 Rocket 4.1 17:22:01 10° NNW 17:27:06 52° ENE 17:32:07 10° SE
Cosmos 1844 Rocket 2.8 17:24:38 10° NNW 17:30:08 56° NE 17:35:36 10° SE
COSMO-SKYMED 1 3.1 17:27:28 10° NNE 17:31:32 38° E 17:35:36 10° SSE
SL-08 R/B 3.4 17:31:26 10° NNE 17:36:26 82° ESE 17:41:22 10° SSW
Cosmos 1328 3.7 17:36:04 10° S 17:40:02 86° ESE 17:44:01 10° N
Lacrosse 5 2.2 17:35:23 10° SSW 17:40:18 50° SE 17:44:52 12° ENE
Cosmos 1954 Rocket 4.2 17:35:41 10° S 17:40:45 52° ESE 17:45:50 10° NNE
USA 215 3.7 17:34:36 10° SE 17:41:08 67° SW 17:47:40 10° WNW
CZ-4B DEB 4.2 17:37:08 10° SSE 17:42:28 59° ENE 17:47:50 10° N
Cosmos 1763 Rocket 3.4 17:37:33 10° NNW 17:42:47 82° ENE 17:47:53 10° SSE
CZ-4B R/B 3.8 17:38:51 10° SE 17:43:40 35° ENE 17:48:35 10° N
Lacrosse 5 rocket 1.1 17:40:20 10° NW 17:43:52 59° NNE 17:47:25 10° ESE
Cosmos 1726 Rocket 3.7 17:40:49 10° N 17:45:01 47° ENE 17:49:11 10° SSE
Cosmos 1461 3.6 17:41:40 10° S 17:45:37 39° ESE 17:49:25 12° NE
Meteor 1-11 4.4 17:40:33 10° S 17:46:11 55° E 17:51:49 10° NNE
ATLAS 2AS CENTAUR R/B 2.9 17:39:44 10° NW 17:46:49 78° SW 17:53:27 10° SSE
Cosmos 1892 2.6 17:43:33 10° S 17:47:14 63° E 17:50:58 10° NNE
Cosmos 1844 3.7 17:43:37 10° NNW 17:49:25 67° ENE 17:55:09 10° SE
SL-08 ROCKET BODY 4.3 17:43:49 10° N 17:49:44 86° E 17:55:35 10° S
Gblst 52 Del rocket 4.2 17:47:03 10° WSW 17:52:43 73° SSE 17:57:10 16° ENE
Cosmos 1825 2.4 17:50:13 10° SSE 17:53:44 45° E 17:57:18 10° NNE
Cosmos 540 Rocket 3.4 17:48:49 10° NNW 17:53:59 68° ENE 17:59:05 10° SSE
Cosmos 2219 Rocket 3.4 17:51:09 10° SE 17:55:06 20° E 17:57:32 15° ENE
Cosmos 2278 4.2 17:49:41 10° SW 17:55:17 61° WNW 18:00:58 10° NNE
Cosmos 2360 Rocket 2.6 17:50:07 10° S 17:55:22 42° ESE 18:00:40 10° NE
Cosmos 841 Rocket 3.8 17:51:11 10° NNW 17:56:17 46° ENE 18:01:20 10° SE
CZ-4C R/B 3.2 17:57:19 10° NNE 18:01:08 59° ESE 18:04:43 10° S
Cosmos 1745 Rocket 4.4 17:55:36 10° N 18:01:25 38° ENE 18:07:08 10° SE
Cosmos 2278 Rocket 3.5 17:59:36 10° N 18:03:49 21° NE 18:05:53 17° ENE
CZ-4 R/B 2.1 18:00:30 10° SE 18:04:08 31° ENE 18:07:42 10° N
Okean O Rocket 2.3 18:02:22 10° SE 18:06:17 33° ENE 18:10:15 10° N
Cosmos 2333 Rocket 2.8 18:02:06 10° S 18:07:10 35° ESE 18:11:22 14° NE
Cosmos 2322 Rocket 2.1 18:02:36 10° SSW 18:08:11 72° ESE 18:13:47 10° NNE
USA 281 4.5 18:03:07 10° NNE 18:09:06 39° NW 18:15:04 10° WSW
IRIDIUM 114 4.4 18:04:59 10° N 18:10:07 54° E 18:15:14 10° SSE
Okean-O 4.4 18:11:24 15° NE 18:11:24 15° NE 18:13:09 10° NNE
SKYMED 3 4.4 18:08:27 10° NNE 18:12:35 68° ESE 18:16:43 10° S
RESURS DK-1 2.3 18:08:47 10° NNW 18:12:56 89° ENE 18:17:03 10° SSE
BlueWalker 3 2.4 18:09:13 10° WNW 18:13:01 49° N 18:14:55 26° ENE
Cosmos 1340 2.7 18:10:06 10° N 18:13:41 49° ENE 18:17:15 10° SSE
TRACE 4.5 18:10:26 10° NNE 18:14:06 75° ESE 18:17:45 10° S
ATLAS 5 CENTAUR R/B 3.7 18:11:50 10° NW 18:14:23 15° N 18:16:59 11° NNE
IRIDIUM 103 4.3 18:14:07 10° N 18:19:20 64° E 18:24:30 10° SSE
Cosmos 1709 Rocket 4.5 18:14:09 10° N 18:19:44 34° ENE 18:25:13 10° SE
SKYMED 2 3.8 18:15:27 10° N 18:19:48 73° WNW 18:24:08 10° SSW
ISS -0.5 18:19:51 10° WSW 18:20:53 11° SW 18:21:54 10° SSW
Cosmos 1606 3.5 18:17:37 10° N 18:20:56 30° ENE 18:20:56 30° ENE
SL-4 R/B 1.7 18:17:59 10° WNW 18:21:30 69° N 18:22:55 35° E
COSMOS 2428 4.0 18:18:23 10° SSE 18:21:43 20° ESE 18:21:43 20° ESE
In-Cosmos 22 Rocket 4.2 18:17:05 10° S 18:22:54 84° E 18:28:47 10° NNE
SL-16 R/B 2.5 18:17:54 10° SW 18:23:33 67° WNW 18:29:14 10° NNE
Cosmos 2058 Rocket 2.9 18:20:54 10° N 18:25:19 71° E 18:29:44 10° SSE
Cosmos 676 Rocket 4.1 18:20:15 10° SSW 18:25:33 80° WNW 18:30:51 10° NNE
IGS 5A 4.0 18:26:03 30° E 18:27:04 35° ENE 18:30:51 10° N
Cosmos 1553 Rocket 3.9 18:21:12 10° S 18:27:14 69° E 18:33:23 10° NNE
Cosmos 2333 4.4 18:21:58 10° S 18:27:18 46° ESE 18:31:01 19° NE
SL-08 R/B 4.4 18:21:19 10° N 18:27:36 83° E 18:33:55 10° S
MOS 1-B 4.3 18:22:19 10° SSE 18:28:07 79° ENE 18:33:57 10° NNW
YAOGAN 1 2.5 18:24:47 10° SSE 18:29:05 85° E 18:33:27 10° NNW
CSL-04 Rocket 4.3 18:29:40 27° E 18:31:26 34° ENE 18:36:14 10° N
Feng Yun 1-1 Rocket 4.2 18:29:24 10° SE 18:34:49 58° ENE 18:40:09 10° N
Cosmos 1980 Rocket 4.2 18:30:26 10° W 18:34:52 23° NW 18:39:18 10° NNE
IRIDIUM 106 4.3 18:32:23 10° N 18:37:39 89° E 18:42:52 10° S
Genesis I 3.1 18:33:49 10° SSW 18:37:45 68° SE 18:38:52 43° ENE
BREEZE-M DEB (TANK) 3.9 18:24:28 10° SW 18:38:16 48° SSE 18:40:19 31° ESE
Cosmos 1633 2.7 18:35:03 10° SSW 18:38:22 65° W 18:41:43 10° N
Cosmos 1943 Rocket 3.8 18:35:26 10° N 18:39:05 17° NNE 18:39:19 17° NE
Cosmos 2322 4.1 18:42:32 10° S 18:47:50 41° ESE 18:48:47 38° E
Cosmos 44 Rocket 3.3 18:46:47 10° SSW 18:51:18 50° ESE 18:51:43 48° ESE
Cosmos 1869 4.2 18:50:51 10° NNW 18:54:37 48° W 18:58:24 10° S
ATLAS CENTAUR R/B 3.8 18:55:04 10° WNW 18:58:17 18° NNW 19:00:39 13° NNE
Cosmos-2242 4.5 18:58:25 10° N 19:00:15 23° NNE 19:00:15 23° NNE
S3M 3.9 18:56:40 10° S 19:03:02 78° E 19:09:26 10° NNE
Landsat 7 3.9 19:11:41 57° NE 19:11:41 57° NE 19:15:46 10° N
SJ-6B 3.8 19:18:32 38° NNW 19:18:32 38° NNW 19:21:05 10° NNW
Lacrosse 4 Rocket 3.9 19:15:46 10° N 19:16:37 13° N 19:16:37 13° N
Resurs 01 Rocket 4.0 19:22:58 13° N 19:22:58 13° N 19:23:31 10° N
Lacrosse 5 rocket 2.9 19:19:28 10° WNW 19:22:32 26° SW 19:22:52 25° SW
Lacrosse 5 2.3 19:18:17 10° W 19:23:19 54° NNW 19:24:05 49° N
CZ-4B R/B 4.3 19:19:05 10° S 19:24:08 42° W 19:29:20 10° NNW
Cosmos 1461 4.3 19:20:27 10° WSW 19:24:31 37° NW 19:25:35 32° N
Cosmos 2315 Rocket 3.9 19:18:20 10° S 19:24:37 70° E 19:30:59 10° NNE
Spot 1 4.4 19:25:56 56° WSW 19:25:56 56° WSW 19:29:21 10° SSW
BREEZE-M DEB (TANK) 4.0 19:24:29 10° W 19:28:30 52° S 19:30:46 39° SE
Cosmos 1814 Rocket 4.2 19:23:21 10° NNW 19:28:42 71° WSW 19:30:18 45° S
Cosmos 2219 Rocket 2.2 19:32:49 10° SW 19:38:24 76° WNW 19:39:20 61° N
CZ-4 R/B 3.3 19:35:25 10° SSW 19:39:00 29° W 19:42:34 10° NW
Cosmos 2360 Rocket 3.3 19:34:06 10° WSW 19:39:24 40° NW 19:43:00 19° N
USA 81 4.4 19:36:01 10° SSW 19:41:13 63° W 19:46:29 10° N
Okean O Rocket 3.3 19:38:40 10° SSW 19:42:36 32° W 19:46:35 10° NNW
Gblst 52 Del rocket 4.2 19:38:57 10° W 19:44:07 70° NW 19:44:07 70° NW
Okean-O 4.4 19:48:55 25° NNW 19:48:55 25° NNW 19:50:50 10° NNW
Cosmos 2278 Rocket 2.5 19:43:06 10° NNW 19:47:46 60° NNW 19:47:46 60° NNW
Cosmos 2333 Rocket 3.0 19:45:50 10° SW 19:51:18 47° NW 19:53:26 32° N
BlueWalker 3 4.1 19:47:59 10° WNW 19:49:43 25° WNW 19:49:43 25° WNW
Cosmos 2322 Rocket 4.0 19:48:07 10° W 19:52:47 26° NW 19:56:27 14° N
ATLAS 5 CENTAUR R/B 4.0 19:56:42 10° NNW 19:58:21 17° N 19:58:21 17° N
Cosmos 2369 Rocket 4.3 19:59:43 10° N 20:01:13 15° N 20:01:13 15° N
COSMOS 2428 3.7 20:00:22 10° SW 20:03:49 38° SW 20:03:49 38° SW
Cosmos 1943 Rocket 3.9 20:18:25 10° NNW 20:20:51 26° NNW 20:20:51 26° NNW
